Location: Bosdarros
(43.2167°N, 0.3667°W)
Time: 10:39:37
(UTC+00:00)

METEOR 2-8 DEB - Visible Passes

Search period start: 23 October 2021 00:00
Search period end: 02 November 2021 00:00
Orbit: 827 x 873 km, 82.5° (Epoch: 17 October)

Date Brightness Start Highest point End Pass type
(mag) Time Alt. Az. Time Alt. Az. Time Alt. Az.
29 Oct ? 20:43:43 10° NNW 20:43:55 11° NNW 20:43:55 11° NNW visible
30 Oct ? 20:31:35 10° NNW 20:32:02 12° NNW 20:32:02 12° NNW visible
31 Oct ? 20:19:27 10° N 20:20:12 14° N 20:20:12 14° N visible
01 Nov ? 20:07:19 10° N 20:08:23 16° N 20:08:23 16° N visible
